SITRO-AIS 32

Last updated on Thu Nov 21 2024 00:03:40 GMT+0000 (Coordinated Universal Time)

1 59057U 24039G 24325.56114160 .00067279 00000+0 14855-2 0 9999 2 59057 97.4085 287.9256 0015007 37.6842 322.5454 15.43517773 40577
UTC large
Height (km)
Speed (km/s)
/
Latitude / Longitude
Inclination (degrees)
Orbital Period (minutes)
Azimuth
Elevation
Range (km)
Doppler Factor

Next 0 passes for location: London (51.5072 / 0.1276)

Sorry there are no passes over London.